Location: Newark
(47.5833°N, 8.1500°E)
Time: 13:30:44
(UTC+00:00)

S-56A Canister/Altair - All Passes

Search period start: 31 October 2020 00:00
Search period end: 10 November 2020 00:00
Orbit: 633 x 2499 km, 38.9° (Epoch: 30 October)

Date Brightness Start Highest point End Pass type
(mag) Time Alt. Az. Time Alt. Az. Time Alt. Az.
31 Oct - 03:31:55 10° S 03:35:09 17° SE 03:39:00 10° ESE visible
31 Oct - 05:32:25 10° SW 05:37:46 39° SSE 05:45:26 10° ESE visible
31 Oct - 07:34:51 10° WSW 07:41:26 43° S 07:51:09 10° ESE daylight
31 Oct - 09:38:25 10° W 09:45:36 29° SSW 09:55:16 10° SSE daylight
31 Oct - 11:47:02 10° SW 11:49:38 11° SW 11:52:25 10° SSW daylight
01 Nov - 03:00:22 10° S 03:02:42 13° SE 03:05:19 10° ESE visible
01 Nov - 05:00:12 10° SW 05:05:09 35° SSE 05:12:03 10° ESE visible
01 Nov - 07:02:28 10° WSW 07:08:38 43° S 07:17:40 10° ESE daylight
01 Nov - 09:05:49 10° W 09:12:39 29° SSW 09:22:00 10° SSE daylight
01 Nov - 11:13:02 10° WSW 11:16:41 12° SW 11:20:43 10° SSW daylight
02 Nov - 02:29:57 10° SE 02:30:17 10° SE 02:30:36 10° SE visible
02 Nov - 04:28:01 10° SW 04:32:36 32° SSE 04:38:44 10° ESE visible
02 Nov - 06:30:09 10° WSW 06:35:52 42° S 06:44:14 10° ESE daylight
02 Nov - 08:33:18 10° WSW 08:39:46 30° SSW 08:48:42 10° SE daylight
02 Nov - 10:39:36 10° WSW 10:43:45 13° SW 10:48:29 10° SSW daylight
03 Nov - 03:55:53 10° SW 04:00:05 28° SSE 04:05:29 10° ESE visible
03 Nov - 05:57:50 10° WSW 06:03:11 40° S 06:10:52 10° ESE daylight
03 Nov - 08:00:50 10° WSW 08:06:55 31° SSW 08:15:25 10° SE daylight
03 Nov - 10:06:26 10° WSW 10:10:51 14° SW 10:15:59 10° S daylight
04 Nov - 03:23:45 10° SSW 03:27:36 24° SSE 03:32:18 10° ESE visible
04 Nov - 05:25:33 10° WSW 05:30:33 39° S 05:37:34 10° ESE visible
04 Nov - 07:28:24 10° WSW 07:34:08 31° SSW 07:42:08 10° SE daylight
04 Nov - 09:33:29 10° WSW 09:37:58 15° SSW 09:43:19 10° S daylight
05 Nov - 02:51:41 10° SSW 02:55:08 21° SSE 02:59:09 10° ESE visible
05 Nov - 04:53:15 10° WSW 04:57:58 37° S 05:04:20 10° ESE visible
05 Nov - 06:56:01 10° WSW 07:01:24 31° SSW 07:08:53 10° SE daylight
05 Nov - 09:00:40 10° WSW 09:05:09 16° SSW 09:10:33 10° S daylight
06 Nov - 02:19:38 10° SSW 02:22:41 18° SSE 02:26:04 10° ESE visible
06 Nov - 04:21:00 10° WSW 04:25:24 34° S 04:31:11 10° ESE visible
06 Nov - 06:23:38 10° WSW 06:28:43 31° SSW 06:35:40 10° SE daylight
06 Nov - 08:27:57 10° WSW 08:32:21 17° SSW 08:37:43 10° S daylight
07 Nov - 01:47:39 10° S 01:50:13 15° SSE 01:52:58 10° ESE visible
07 Nov - 03:48:43 10° SW 03:52:53 32° S 03:58:07 10° ESE visible
07 Nov - 05:51:18 10° WSW 05:56:04 31° S 06:02:31 10° SE daylight
07 Nov - 07:55:20 10° WSW 07:59:35 17° SSW 08:04:51 10° S daylight
08 Nov - 01:15:45 10° S 01:17:46 13° SSE 01:19:49 10° SE night (unlit)
08 Nov - 03:16:26 10° SW 03:20:23 30° S 03:25:08 10° ESE visible
08 Nov - 05:18:58 10° WSW 05:23:28 31° S 05:29:25 10° SE visible
08 Nov - 07:22:46 10° WSW 07:26:53 18° SSW 07:31:58 10° SSE daylight
09 Nov - 00:44:06 10° SSE 00:45:18 11° SSE 00:46:29 10° SE night (unlit)
09 Nov - 02:44:08 10° SW 02:47:54 27° SSE 02:52:14 10° ESE visible
09 Nov - 04:46:38 10° WSW 04:50:54 30° S 04:56:24 10° SE visible
09 Nov - 06:50:16 10° WSW 06:54:12 18° SSW 06:59:05 10° SSE daylight
